Regional Weather Roundup
Issued by NWS

Home | Current Version | Previous Version | Text Only | Print | Product List | Glossary On
Versions: 1 2 3 4 5 6 7 8 9 10 11 12 13 14 15 16 17 18 19 20 21 22 23 24 25 26 27 28 29 30 31 32 33 34 35 36 37 38 39 40 41 42 43 44 45 46 47 48 49 50
000
ASUS44 KFWD 031215
RWRTX
NORTH TEXAS HOURLY WEATHER ROUNDUP
NATIONAL WEATHER SERVICE FORT WORTH TX
700 AM CDT FRI JUL 03 2015

NOTE: "FAIR" INDICATES FEW OR NO CLOUDS BELOW 12,000 FEET WITH NO
SIGNIFICANT WEATHER AND/OR OBSTRUCTIONS TO VISIBILITY.

TXZ118-119-031300-
DALLAS/FORT WORTH METROPLEX

CITY           SKY/WX    TMP DP  RH WIND       PRES   REMARKS
DFW AIRPORT    CLOUDY    79  72  79 SW14      29.95R
6HR MIN TEMP:  79; 6HR MAX TEMP:  84;

DALLAS LOVE    LGT RAIN  80  72  76 SW8       29.96R
6HR MIN TEMP:  80; 6HR MAX TEMP:  84; 6HR PCP: TRACE;

FTW MEACHAM    CLOUDY    79  72  79 SW15      29.95R
6HR MIN TEMP:  79; 6HR MAX TEMP:  83;

DAL-EXECUTIVE  CLOUDY    77  72  84 VRB3      29.96R
6HR MIN TEMP:  78; 6HR MAX TEMP:  81;

FTW-ALLIANCE   CLOUDY    78  72  81 SW12G18   29.95R
6HR MIN TEMP:  77; 6HR MAX TEMP:  83;

FTW-NAS-JRB    CLOUDY    78  73  84 SW14      29.96R
6HR MIN TEMP:  78; 6HR MAX TEMP:  83;

FTW-SPINKS     MOCLDY    77  72  83 S7        29.97S HAZE
ARLINGTON      CLOUDY    79  71  76 S13G21    29.96R
6HR MIN TEMP:  79; 6HR MAX TEMP:  83;

GRAND PRAIRIE  CLEAR     79  73  83 S14G23    29.97R
ADDISON        CLOUDY    79  72  78 SW8G20    29.96R
MESQUITE       CLOUDY    79  73  83 S9G18     29.96S HAZE
LANCASTER      CLOUDY    77  72  83 S6        29.97S
6HR MIN TEMP:  77; 6HR MAX TEMP:  79;

$$

TXZ091>094-102>105-117-120-121-131>134-031300-
NORTH CENTRAL TEXAS

CITY           SKY/WX    TMP DP  RH WIND       PRES   REMARKS
SHRMAN/DENISON CLOUDY    79  73  81 SW12G17   29.95R
6HR MIN TEMP:  79; 6HR MAX TEMP:  82;

GAINESVILLE    CLOUDY    77  69  76 S13       29.96R
6HR MIN TEMP:  76; 6HR MAX TEMP:  79;

BOWIE          CLOUDY    57  48  70 S10       29.95R
6HR MIN TEMP:  31; 6HR MAX TEMP:  76;

BRIDGEPORT     CLOUDY    77  70  78 SW8       29.96R
6HR MIN TEMP:  77; 6HR MAX TEMP:  82;

DECATUR        CLOUDY    76  67  73 SW12      29.96R
6HR MIN TEMP:  76; 6HR MAX TEMP:  81;

DENTON         CLOUDY    78  72  81 SW9       29.95R
6HR MIN TEMP:  78; 6HR MAX TEMP:  82; 6HR PCP: TRACE;

MCKINNEY       CLOUDY    80  72  76 SW12      29.95R
6HR MIN TEMP:  80; 6HR MAX TEMP:  83;

GREENVILLE     CLOUDY    79  72  78 S13G21    29.97R
ROCKWALL       CLOUDY    78  74  86 S15       29.95R
6HR MIN TEMP:  78; 6HR MAX TEMP:  81;

TERRELL        CLOUDY    78  74  87 S12       29.97R
6HR MIN TEMP:  78; 6HR MAX TEMP:  81;

WAXAHACHIE     CLOUDY    76  74  94 S14G20    29.98S
6HR MIN TEMP:  76; 6HR MAX TEMP:  79;

CLEBURNE       MOCLDY    75  75 100 S8        30.00R
GRANBURY         N/A     77  71  82 CALM      29.99R
6HR MIN TEMP:  77; 6HR MAX TEMP:  81;

$$

TXZ083>090-098>101-113>116-127>130-139>142-154-155-031300-
WESTERN NORTH TEXAS

CITY           SKY/WX    TMP DP  RH WIND       PRES   REMARKS
WICHITA FALLS  CLOUDY    79  68  69 SW14      29.92R
6HR MIN TEMP:  77; 6HR MAX TEMP:  81;

WF-KICKAPOO    CLOUDY    80  68  66 SW10G16   29.94R
6HR MIN TEMP:  80; 6HR MAX TEMP:  82;

VERNON         CLOUDY    75  63  65 W3        29.95R
6HR MIN TEMP:  75; 6HR MAX TEMP:  88;

ABILENE        CLOUDY    74  67  78 S9        30.01R
6HR MIN TEMP:  74; 6HR MAX TEMP:  78;

ABILENE-DYESS  CLOUDY    73  66  81 S6        30.00R
6HR MIN TEMP:  73; 6HR MAX TEMP:  76;

BRECKENRIDGE   CLOUDY    76  67  73 SW3       29.99R
6HR MIN TEMP:  76; 6HR MAX TEMP:  82;

GRAHAM         CLOUDY    76  69  77 S7        29.96R
6HR MIN TEMP:  76; 6HR MAX TEMP:  82;

MINERAL WELLS  CLOUDY    76  69  79 S8        29.96R
6HR MIN TEMP:  75; 6HR MAX TEMP:  80;

STEPHENVILLE   CLOUDY    73  69  87 SW5       30.02R
6HR MIN TEMP:  73; 6HR MAX TEMP:  76;

COMANCHE       MOCLDY    73  73 100 S7        30.00S
6HR MIN TEMP:  73; 6HR MAX TEMP:  75;

BROWNWOOD      MOCLDY    72  68  88 S6        30.01R FOG
COLEMAN        MOCLDY    71  70  96 S3        30.02R
6HR MIN TEMP:  71; 6HR MAX TEMP:  76;

BRADY          CLEAR     70  70 100 N5        30.02R
$$

TXZ143>147-156>162-174-175-031300-
CENTRAL TEXAS

CITY           SKY/WX    TMP DP  RH WIND       PRES   REMARKS
WACO           CLOUDY    77  73  87 S8        29.98R
6HR MIN TEMP:  76; 6HR MAX TEMP:  79;

WACO-TSTC      CLOUDY    77  73  88 S6        29.98
WACO-MCGREGOR  PTCLDY    75  72  88 S8        29.99S
6HR MIN TEMP:  75; 6HR MAX TEMP:  77;

HILLSBORO      MOCLDY    76  72  86 S12       29.98R
6HR MIN TEMP:  75; 6HR MAX TEMP:  78;

CORSICANA      CLOUDY    77  73  87 S9        29.99R
6HR MIN TEMP:  77; 6HR MAX TEMP:  80;

MEXIA          CLOUDY    75  74  95 SE10G17   29.98S
6HR MIN TEMP:  75; 6HR MAX TEMP:  77;

HEARNE         CLOUDY    74  74  98 SE5       30.00S FOG
6HR MIN TEMP:  74; 6HR MAX TEMP:  76;

CAMERON        CLOUDY    76  75  97 S6        29.99S FOG
6HR MIN TEMP:  76; 6HR MAX TEMP:  78;

TEMPLE         PTCLDY    75  70  83 S13       29.98S
6HR MIN TEMP:  73; 6HR MAX TEMP:  75;

KILLEEN        PTCLDY    74  73  96 S8        29.99R
6HR MIN TEMP:  74; 6HR MAX TEMP:  74;

KILLEEN-SKYLRK PTCLDY    73  70  88 S8        29.99S
6HR MIN TEMP:  73; 6HR MAX TEMP:  75;

FORT HOOD      CLOUDY    74  73  95 S8        29.99R
6HR MIN TEMP:  74; 6HR MAX TEMP:  75;

GATESVILLE     PTCLDY    75  73  94 S6        30.01S
HAMILTON       MOCLDY    74  74 100 MISG      30.01R
6HR MIN TEMP:  73; 6HR MAX TEMP:  74;

LAMPASAS       PTCLDY    76  74  93 S3        30.00R
6HR MIN TEMP:  76; 6HR MAX TEMP:  77;

$$

TXZ095>097-106>112-122>126-135>138-148>153-164>167-031300-
EAST TEXAS

CITY           SKY/WX    TMP DP  RH WIND       PRES   REMARKS
PARIS          CLOUDY    79  68  69 SW14      29.94R
6HR MIN TEMP:  77; 6HR MAX TEMP:  81;

SULPHUR SPRNGS CLOUDY    78  73  83 SW15      29.98R
6HR MIN TEMP:  78; 6HR MAX TEMP:  81;

MOUNT PLEASANT CLOUDY    78  71  79 S8        29.97S
6HR MIN TEMP:  76; 6HR MAX TEMP:  78;

GILMER         CLOUDY    76  71  85 S8        29.98R
6HR MIN TEMP:  76; 6HR MAX TEMP:  77;

MINEOLA        CLOUDY    79  73  83 S7        29.98S
TYLER          CLOUDY    79  73  82 S17       29.98R
6HR MIN TEMP:  78; 6HR MAX TEMP:  81; 6HR PCP: TRACE;

LONGVIEW       MOCLDY    80  73  79 S10       29.98R
6HR MIN TEMP:  80; 6HR MAX TEMP:  82;

MARSHALL       CLOUDY    77  73  90 S6        30.00S
6HR MIN TEMP:  76; 6HR MAX TEMP:  78;

ATHENS         MOCLDY    73  72  94 S6        29.98S
PALESTINE      CLOUDY    75  74  95 S7        30.01R
JACKSONVILLE   CLOUDY    74  73  95 S7        30.03R FOG
HENDERSON      MOCLDY    74  73  96 CALM      30.01R
6HR MIN TEMP:  74; 6HR MAX TEMP:  77;

CENTER         CLOUDY    75  74  96 S6        30.00S
6HR MIN TEMP:  74; 6HR MAX TEMP:  76;

NACOGDOCHES    CLEAR    N/A N/A N/A CALM      30.00S
LUFKIN         CLOUDY    77  73  87 S5        30.01R FOG
6HR MIN TEMP:  76; 6HR MAX TEMP:  78;

$$

SUPPLEMENTAL OBSERVATIONS (CENTRAL)

CITY           SKY/WX    TMP DP  RH WIND       PRES   REMARKS
LAKE TEXOMA      N/A     79  72  78 W10         N/A
CADDO GRASSLND   N/A     79  72  78 W5G15       N/A
PAT MAYSE LAKE   N/A     79  73  83 S9          N/A
GREENVILLE       N/A     79  72  78 SW10        N/A
CEDAR HILL       N/A     77  72  83 S7G15       N/A
ATHENS           N/A     77  72  83 S8          N/A


USA.gov is the U.S. government's official web portal to all federal, state and local government web resources and services.